Kosmos-1217

operational
NORAD ID: 12032 Int'l Des: 1980-085 Owner: PVO Country: SU
MEOELLIPTICALHEO_ELLIPTICALSEMI_SYNC

About Kosmos-1217

Description loading...

Live Position

Loading 3D Globe...

Upcoming Passes

Altitude History

Altitude vs Time

uPlot chart will show altitude changes over time

Two-Line Element Set

1 12032U 80085A 26061.19239052 -.00000204 00000-0 00000+0 0 9991
2 12032 70.0883 183.1713 5680376 243.4124 48.6357 2.00918814280067
Epoch: Mar 2, 2026 • Age: 42 hours

Current Status

Altitude 30536.4 km
Velocity 2.56 km/s
Sub-Earth Point 35.36°N, 119.11°E
Launch Date Oct 24, 1980
Age 45.3 years
Type other

Technical Details

Classification Payload
Mass 1250.00 kg
Dry Mass 1150.00 kg
Total Mass 1250.00 kg
Length 4.00 m
Diameter 2.00 m
Span 5.00 m
Shape Cyl + 2 Pan
Manufacturer NPOL/KOMET
Bus Type Oko
Phase Status In Orbit
Owner/State PVO/SU

Large Constellations

Loading constellations...